| time (UTC) | temp C | wind direction | speed KPH | gust KPH | rain 1hr cm | rain 24hr cm | rain mn cm | humidity % | barometer mb |
| 20260504234859 | 8 | 328 | 0.0 | 0.0 | 0.00 | 0.81 | 0.81 | 90 | 1012.5 |
| 20260504234656 | 8 | 328 | 0.0 | 0.0 | 0.00 | 0.81 | 0.81 | 90 | 1012.5 |
| 20260504234447 | 8 | 329 | 0.0 | 0.0 | 0.10 | 0.81 | 0.81 | 90 | 1012.5 |
| 20260504234237 | 8 | 329 | 0.0 | 0.0 | 0.13 | 0.81 | 0.81 | 90 | 1012.5 |
| 20260504234024 | 8 | 329 | 0.0 | 0.0 | 0.15 | 0.81 | 0.81 | 90 | 1012.4 |
| 20260504233814 | 8 | 329 | 0.0 | 1.6 | 0.15 | 0.81 | 0.81 | 90 | 1012.5 |
| 20260504233602 | 8 | 329 | 0.0 | 1.6 | 0.15 | 0.81 | 0.81 | 90 | 1012.4 |
| 20260504233356 | 8 | 328 | 0.0 | 0.0 | 0.15 | 0.81 | 0.81 | 90 | 1012.4 |
| 20260504233153 | 8 | 328 | 0.0 | 4.8 | 0.15 | 0.81 | 0.81 | 90 | 1012.4 |
| 20260504232949 | 8 | 306 | 0.0 | 1.6 | 0.15 | 0.79 | 0.79 | 90 | 1012.3 |
| 20260504232602 | 8 | 306 | 0.0 | 0.0 | 0.00 | 0.79 | 0.79 | 90 | 1012.4 |
| 20260504232354 | 8 | 306 | 0.0 | 1.6 | 0.00 | 0.79 | 0.79 | 89 | 1012.4 |
| 20260504232151 | 8 | 306 | 0.0 | 1.6 | 0.00 | 0.79 | 0.79 | 89 | 1012.6 |
| 20260504231948 | 8 | 305 | 0.0 | 0.0 | 0.00 | 0.76 | 0.74 | 89 | 1012.6 |
| 20260504231737 | 8 | 305 | 0.0 | 3.2 | 0.00 | 0.76 | 0.74 | 89 | 1012.6 |
| 20260504231350 | 8 | 305 | 0.0 | 3.2 | 0.00 | 0.76 | 0.74 | 89 | 1012.6 |
| 20260504230957 | 8 | 306 | 0.0 | 0.0 | 0.00 | 0.76 | 0.74 | 89 | 1012.5 |
| 20260504230746 | 8 | 306 | 0.0 | 0.0 | 0.00 | 0.76 | 0.74 | 89 | 1012.4 |
| 20260504230544 | 8 | 306 | 0.0 | 0.0 | 0.00 | 0.76 | 0.74 | 89 | 1012.5 |
| 20260504230334 | 8 | 306 | 0.0 | 0.0 | 0.00 | 0.76 | 0.74 | 89 | 1012.5 |
| 20260504230129 | 8 | 306 | 0.0 | 4.8 | 0.00 | 0.76 | 0.74 | 89 | 1012.5 |
| 20260504225924 | 8 | 212 | 0.0 | 0.0 | 0.00 | 0.76 | 0.74 | 89 | 1012.5 |
| 20260504225713 | 8 | 212 | 0.0 | 1.6 | 0.10 | 0.74 | 0.74 | 89 | 1012.5 |
| 20260504225511 | 8 | 211 | 0.0 | 0.0 | 0.10 | 0.74 | 0.74 | 89 | 1012.6 |
| 20260504224936 | 8 | 211 | 0.0 | 1.6 | 0.13 | 0.74 | 0.74 | 89 | 1012.6 |
| 20260504224730 | 8 | 211 | 0.0 | 0.0 | 0.13 | 0.74 | 0.74 | 89 | 1012.5 |
| 20260504224343 | 8 | 211 | 0.0 | 1.6 | 0.13 | 0.74 | 0.74 | 89 | 1012.5 |
| 20260504223809 | 8 | 211 | 0.0 | 0.0 | 0.13 | 0.71 | 0.71 | 90 | 1012.5 |
| 20260504223558 | 8 | 211 | 0.0 | 3.2 | 0.13 | 0.71 | 0.71 | 90 | 1012.4 |
| 20260504223348 | 8 | 212 | 0.0 | 0.0 | 0.13 | 0.71 | 0.71 | 89 | 1012.4 |
| 20260504222950 | 8 | 212 | 0.0 | 0.0 | 0.13 | 0.71 | 0.71 | 89 | 1012.5 |
| 20260504222740 | 8 | 211 | 0.0 | 0.0 | 0.13 | 0.69 | 0.66 | 90 | 1012.5 |
| 20260504222530 | 8 | 212 | 0.0 | 0.0 | 0.13 | 0.69 | 0.66 | 89 | 1012.6 |
| 20260504222138 | 8 | 212 | 0.0 | 0.0 | 0.13 | 0.69 | 0.66 | 90 | 1012.6 |
| 20260504221932 | 8 | 211 | 0.0 | 0.0 | 0.13 | 0.69 | 0.66 | 89 | 1012.6 |
| 20260504221543 | 8 | 212 | 0.0 | 1.6 | 0.13 | 0.66 | 0.66 | 89 | 1012.6 |
| 20260504221341 | 8 | 211 | 0.0 | 0.0 | 0.00 | 0.66 | 0.66 | 89 | 1012.6 |
| 20260504221136 | 8 | 211 | 0.0 | 3.2 | 0.00 | 0.66 | 0.66 | 89 | 1012.6 |
| 20260504220926 | 8 | 211 | 0.0 | 0.0 | 0.00 | 0.66 | 0.66 | 89 | 1012.5 |
| 20260504220536 | 8 | 211 | 0.0 | 0.0 | 0.00 | 0.66 | 0.66 | 89 | 1012.5 |
| 20260504220335 | 8 | 211 | 0.0 | 0.0 | 0.00 | 0.66 | 0.66 | 89 | 1012.6 |
| 20260504220128 | 8 | 211 | 0.0 | 0.0 | 0.00 | 0.64 | 0.64 | 89 | 1012.6 |
| 20260504215918 | 8 | 211 | 0.0 | 4.8 | 0.00 | 0.64 | 0.64 | 89 | 1012.6 |
| 20260504215705 | 8 | 211 | 0.0 | 4.8 | 0.00 | 0.64 | 0.64 | 89 | 1012.6 |
| 20260504215501 | 8 | 211 | 0.0 | 4.8 | 0.00 | 0.64 | 0.64 | 89 | 1012.6 |
| 20260504215248 | 8 | 211 | 0.0 | 3.2 | 0.00 | 0.64 | 0.64 | 89 | 1012.6 |
| 20260504215041 | 8 | 211 | 0.0 | 0.0 | 0.00 | 0.64 | 0.64 | 89 | 1012.7 |
| 20260504214835 | 8 | 211 | 0.0 | 0.0 | 0.00 | 0.64 | 0.64 | 89 | 1012.7 |
| 20260504214623 | 8 | 211 | 0.0 | 1.6 | 0.00 | 0.64 | 0.64 | 89 | 1012.8 |
| 20260504214414 | 8 | 211 | 0.0 | 0.0 | 0.00 | 0.64 | 0.64 | 89 | 1012.8 |
| 20260504214212 | 8 | 211 | 0.0 | 0.0 | 0.00 | 0.64 | 0.64 | 89 | 1012.8 |
| 20260504214011 | 8 | 211 | 0.0 | 0.0 | 0.00 | 0.64 | 0.64 | 89 | 1012.8 |
| 20260504213804 | 8 | 211 | 0.0 | 0.0 | 0.00 | 0.61 | 0.61 | 89 | 1012.9 |
| 20260504213554 | 8 | 211 | 0.0 | 3.2 | 0.00 | 0.61 | 0.61 | 89 | 1012.8 |
| 20260504213346 | 8 | 211 | 0.0 | 3.2 | 0.00 | 0.61 | 0.61 | 89 | 1012.8 |
| 20260504212951 | 8 | 211 | 0.0 | 3.2 | 0.00 | 0.61 | 0.61 | 89 | 1012.8 |
| 20260504212741 | 8 | 211 | 0.0 | 1.6 | 0.00 | 0.61 | 0.61 | 89 | 1012.8 |
| 20260504212533 | 8 | 211 | 0.0 | 1.6 | 0.00 | 0.61 | 0.61 | 89 | 1012.8 |
| 20260504212319 | 8 | 211 | 0.0 | 0.0 | 0.00 | 0.61 | 0.61 | 90 | 1012.8 |
| 20260504212107 | 8 | 211 | 0.0 | 4.8 | 0.00 | 0.61 | 0.61 | 90 | 1012.8 |
| 20260504211900 | 8 | 211 | 0.0 | 3.2 | 0.00 | 0.61 | 0.61 | 90 | 1012.8 |
| 20260504211649 | 8 | 211 | 0.0 | 3.2 | 0.00 | 0.61 | 0.61 | 90 | 1012.8 |
| 20260504211439 | 8 | 211 | 0.0 | 3.2 | 0.00 | 0.61 | 0.61 | 90 | 1012.8 |
| 20260504211233 | 8 | 211 | 0.0 | 3.2 | 0.00 | 0.61 | 0.61 | 90 | 1012.8 |
| 20260504211023 | 8 | 211 | 0.0 | 1.6 | 0.00 | 0.61 | 0.61 | 90 | 1012.8 |
| 20260504210812 | 8 | 211 | 0.0 | 3.2 | 0.00 | 0.61 | 0.61 | 90 | 1012.7 |
| 20260504210425 | 8 | 211 | 0.0 | 3.2 | 0.00 | 0.61 | 0.61 | 90 | 1012.8 |
| 20260504210220 | 8 | 211 | 0.0 | 0.0 | 0.00 | 0.61 | 0.61 | 90 | 1012.7 |
| 20260504210013 | 8 | 211 | 0.0 | 0.0 | 0.00 | 0.61 | 0.61 | 90 | 1012.8 |
| 20260504205800 | 8 | 211 | 0.0 | 0.0 | 0.00 | 0.61 | 0.61 | 90 | 1012.7 |
| 20260504205559 | 8 | 211 | 0.0 | 3.2 | 0.00 | 0.61 | 0.61 | 90 | 1012.7 |
| 20260504205355 | 8 | 211 | 0.0 | 3.2 | 0.00 | 0.61 | 0.61 | 90 | 1012.6 |
| 20260504205153 | 8 | 211 | 0.0 | 3.2 | 0.00 | 0.61 | 0.61 | 90 | 1012.7 |
| 20260504204942 | 8 | 211 | 0.0 | 3.2 | 0.00 | 0.61 | 0.61 | 90 | 1012.7 |
| 20260504204550 | 8 | 211 | 0.0 | 4.8 | 0.00 | 0.61 | 0.61 | 90 | 1012.6 |
| 20260504204338 | 8 | 211 | 0.0 | 4.8 | 0.00 | 0.61 | 0.61 | 90 | 1012.6 |
| 20260504204128 | 8 | 211 | 0.0 | 1.6 | 0.00 | 0.61 | 0.61 | 89 | 1012.6 |
| 20260504203926 | 8 | 211 | 0.0 | 3.2 | 0.00 | 0.61 | 0.61 | 89 | 1012.6 |
| 20260504203722 | 8 | 211 | 0.0 | 1.6 | 0.00 | 0.61 | 0.61 | 89 | 1012.6 |
| 20260504203519 | 8 | 211 | 0.0 | 0.0 | 0.00 | 0.61 | 0.61 | 89 | 1012.6 |
| 20260504203313 | 8 | 211 | 0.0 | 1.6 | 0.00 | 0.61 | 0.61 | 89 | 1012.6 |
| 20260504202924 | 8 | 211 | 0.0 | 4.8 | 0.00 | 0.61 | 0.61 | 89 | 1012.6 |
| 20260504202721 | 8 | 211 | 0.0 | 4.8 | 0.00 | 0.61 | 0.61 | 89 | 1012.7 |
| 20260504202512 | 8 | 211 | 0.0 | 4.8 | 0.00 | 0.61 | 0.61 | 89 | 1012.8 |
| 20260504202120 | 8 | 211 | 0.0 | 4.8 | 0.00 | 0.58 | 0.58 | 89 | 1012.7 |
| 20260504201915 | 8 | 211 | 0.0 | 4.8 | 0.00 | 0.58 | 0.58 | 89 | 1012.7 |
| 20260504201713 | 8 | 211 | 0.0 | 4.8 | 0.00 | 0.58 | 0.58 | 89 | 1012.7 |
| 20260504201501 | 8 | 211 | 1.6 | 4.8 | 0.00 | 0.58 | 0.58 | 88 | 1012.6 |
| 20260504201112 | 8 | 211 | 0.0 | 4.8 | 0.00 | 0.58 | 0.58 | 88 | 1012.7 |
| 20260504200911 | 8 | 211 | 0.0 | 4.8 | 0.00 | 0.58 | 0.58 | 88 | 1012.6 |
| 20260504200704 | 8 | 212 | 0.0 | 3.2 | 0.00 | 0.58 | 0.58 | 88 | 1012.7 |
| 20260504200501 | 8 | 212 | 0.0 | 0.0 | 0.00 | 0.58 | 0.58 | 88 | 1012.7 |
| 20260504200258 | 8 | 212 | 0.0 | 0.0 | 0.00 | 0.58 | 0.58 | 88 | 1012.7 |
| 20260504200055 | 8 | 212 | 0.0 | 0.0 | 0.10 | 0.58 | 0.58 | 88 | 1012.7 |
| 20260504195848 | 8 | 212 | 0.0 | 0.0 | 0.10 | 0.58 | 0.58 | 88 | 1012.7 |
| 20260504195642 | 8 | 212 | 0.0 | 0.0 | 0.10 | 0.58 | 0.58 | 88 | 1012.7 |
| 20260504195440 | 8 | 212 | 0.0 | 0.0 | 0.10 | 0.58 | 0.58 | 88 | 1012.7 |
| 20260504195235 | 8 | 212 | 0.0 | 0.0 | 0.10 | 0.58 | 0.58 | 88 | 1012.6 |
| 20260504195033 | 8 | 212 | 0.0 | 0.0 | 0.10 | 0.58 | 0.58 | 88 | 1012.6 |
| 20260504194642 | 8 | 212 | 0.0 | 3.2 | 0.10 | 0.58 | 0.58 | 88 | 1012.6 |
| 20260504194246 | 8 | 212 | 0.0 | 3.2 | 0.13 | 0.56 | 0.56 | 88 | 1012.6 |
| 20260504194041 | 8 | 212 | 0.0 | 3.2 | 0.13 | 0.56 | 0.56 | 88 | 1012.6 |
| 20260504193652 | 8 | 212 | 0.0 | 0.0 | 0.20 | 0.56 | 0.56 | 88 | 1012.6 |
| 20260504192935 | 8 | 212 | 0.0 | 3.2 | 0.13 | 0.53 | 0.53 | 88 | 1012.6 |
| 20260504192730 | 8 | 212 | 0.0 | 0.0 | 0.13 | 0.53 | 0.53 | 88 | 1012.6 |
| 20260504192520 | 8 | 212 | 0.0 | 0.0 | 0.13 | 0.53 | 0.53 | 88 | 1012.5 |
| 20260504192125 | 8 | 211 | 0.0 | 0.0 | 0.13 | 0.51 | 0.51 | 88 | 1012.5 |
| 20260504191916 | 8 | 211 | 0.0 | 3.2 | 0.15 | 0.51 | 0.51 | 88 | 1012.4 |
| 20260504191706 | 8 | 211 | 0.0 | 1.6 | 0.18 | 0.51 | 0.51 | 88 | 1012.4 |
| 20260504191455 | 8 | 212 | 0.0 | 1.6 | 0.25 | 0.51 | 0.51 | 88 | 1012.4 |
| 20260504191249 | 8 | 212 | 0.0 | 1.6 | 0.36 | 0.51 | 0.51 | 88 | 1012.3 |
| 20260504190707 | 8 | 212 | 0.0 | 0.0 | 0.48 | 0.48 | 0.48 | 88 | 1012.4 |
| 20260504190501 | 8 | 211 | 0.0 | 0.0 | 0.41 | 0.46 | 0.46 | 88 | 1012.4 |
| 20260504190106 | 8 | 211 | 0.0 | 0.0 | 0.15 | 0.43 | 0.41 | 88 | 1012.3 |
| 20260504185902 | 8 | 211 | 0.0 | 3.2 | 0.15 | 0.41 | 0.41 | 88 | 1012.2 |
| 20260504185652 | 8 | 212 | 0.0 | 3.2 | 0.13 | 0.41 | 0.41 | 88 | 1012.3 |
| 20260504185439 | 8 | 212 | 0.0 | 0.0 | 0.13 | 0.41 | 0.41 | 88 | 1012.3 |
| 20260504185235 | 8 | 212 | 0.0 | 0.0 | 0.13 | 0.41 | 0.41 | 88 | 1012.3 |
| 20260504185031 | 8 | 212 | 0.0 | 0.0 | 0.13 | 0.41 | 0.41 | 88 | 1012.2 |
| 20260504184818 | 8 | 212 | 0.0 | 0.0 | 0.00 | 0.38 | 0.36 | 88 | 1012.2 |
| 20260504184611 | 8 | 212 | 0.0 | 1.6 | 0.00 | 0.38 | 0.36 | 88 | 1012.1 |
| 20260504184407 | 8 | 212 | 0.0 | 0.0 | 0.00 | 0.38 | 0.36 | 88 | 1012.1 |
| 20260504184018 | 8 | 212 | 0.0 | 0.0 | 0.00 | 0.38 | 0.36 | 88 | 1012.1 |
| 20260504183623 | 8 | 212 | 0.0 | 0.0 | 0.00 | 0.36 | 0.36 | 88 | 1012.1 |
| 20260504183418 | 8 | 212 | 0.0 | 0.0 | 0.00 | 0.36 | 0.36 | 88 | 1012.1 |
| 20260504183208 | 8 | 212 | 0.0 | 0.0 | 0.00 | 0.36 | 0.36 | 88 | 1012.1 |
| 20260504182956 | 8 | 212 | 0.0 | 0.0 | 0.00 | 0.36 | 0.36 | 88 | 1012.0 |
| 20260504182558 | 8 | 212 | 0.0 | 0.0 | 0.00 | 0.36 | 0.36 | 88 | 1012.0 |
| 20260504182357 | 8 | 211 | 0.0 | 1.6 | 0.00 | 0.36 | 0.36 | 88 | 1012.1 |
| 20260504182148 | 8 | 211 | 0.0 | 0.0 | 0.00 | 0.36 | 0.36 | 88 | 1012.0 |
| 20260504181946 | 8 | 211 | 0.0 | 0.0 | 0.00 | 0.36 | 0.36 | 88 | 1012.0 |
| 20260504181735 | 8 | 211 | 0.0 | 3.2 | 0.00 | 0.36 | 0.36 | 88 | 1012.0 |
| 20260504181528 | 8 | 211 | 0.0 | 3.2 | 0.00 | 0.36 | 0.36 | 88 | 1011.9 |
| 20260504181319 | 8 | 211 | 0.0 | 0.0 | 0.00 | 0.36 | 0.36 | 88 | 1011.9 |
| 20260504181115 | 8 | 211 | 0.0 | 0.0 | 0.00 | 0.36 | 0.36 | 88 | 1011.9 |
| 20260504180912 | 8 | 211 | 0.0 | 0.0 | 0.00 | 0.36 | 0.36 | 88 | 1011.9 |
| 20260504180709 | 8 | 211 | 0.0 | 1.6 | 0.00 | 0.36 | 0.36 | 88 | 1011.9 |
| 20260504180322 | 8 | 211 | 0.0 | 1.6 | 0.00 | 0.36 | 0.36 | 88 | 1011.9 |
| 20260504180116 | 8 | 211 | 0.0 | 0.0 | 0.00 | 0.36 | 0.36 | 88 | 1011.9 |
| 20260504175906 | 8 | 211 | 0.0 | 0.0 | 0.00 | 0.36 | 0.36 | 88 | 1011.9 |
| 20260504175659 | 8 | 211 | 0.0 | 0.0 | 0.00 | 0.36 | 0.36 | 88 | 1011.9 |
| 20260504175451 | 8 | 211 | 0.0 | 1.6 | 0.00 | 0.36 | 0.36 | 88 | 1012.0 |
| 20260504175247 | 8 | 211 | 0.0 | 0.0 | 0.00 | 0.36 | 0.36 | 88 | 1012.0 |
| 20260504175039 | 8 | 211 | 0.0 | 0.0 | 0.00 | 0.36 | 0.36 | 88 | 1011.9 |
| 20260504174831 | 8 | 211 | 0.0 | 1.6 | 0.00 | 0.36 | 0.36 | 88 | 1011.9 |
| 20260504174440 | 8 | 211 | 0.0 | 1.6 | 0.00 | 0.36 | 0.36 | 88 | 1011.9 |
| 20260504174228 | 8 | 211 | 0.0 | 4.8 | 0.00 | 0.36 | 0.36 | 88 | 1011.9 |
| 20260504174018 | 8 | 211 | 0.0 | 1.6 | 0.00 | 0.36 | 0.36 | 88 | 1011.8 |
| 20260504173814 | 8 | 211 | 0.0 | 3.2 | 0.00 | 0.36 | 0.36 | 88 | 1011.8 |
| 20260504173422 | 8 | 210 | 0.0 | 3.2 | 0.00 | 0.36 | 0.36 | 88 | 1011.8 |
| 20260504173210 | 8 | 209 | 0.0 | 0.0 | 0.00 | 0.36 | 0.36 | 88 | 1011.7 |
| 20260504173001 | 8 | 209 | 0.0 | 3.2 | 0.00 | 0.36 | 0.36 | 88 | 1011.7 |
| 20260504172611 | 8 | 208 | 0.0 | 3.2 | 0.00 | 0.36 | 0.36 | 88 | 1011.6 |
| 20260504172409 | 8 | 208 | 0.0 | 3.2 | 0.00 | 0.36 | 0.36 | 88 | 1011.6 |
| 20260504172203 | 8 | 207 | 0.0 | 0.0 | 0.00 | 0.36 | 0.36 | 88 | 1011.6 |
| 20260504171956 | 8 | 207 | 0.0 | 0.0 | 0.00 | 0.36 | 0.36 | 88 | 1011.5 |
| 20260504171750 | 8 | 207 | 0.0 | 1.6 | 0.00 | 0.36 | 0.36 | 88 | 1011.5 |
| 20260504171539 | 8 | 207 | 0.0 | 1.6 | 0.00 | 0.36 | 0.36 | 88 | 1011.4 |
| 20260504171328 | 8 | 207 | 0.0 | 0.0 | 0.00 | 0.36 | 0.36 | 88 | 1011.4 |
| 20260504171120 | 8 | 207 | 0.0 | 0.0 | 0.00 | 0.36 | 0.36 | 88 | 1011.4 |
| 20260504170915 | 8 | 207 | 0.0 | 0.0 | 0.00 | 0.36 | 0.36 | 88 | 1011.4 |
| 20260504170712 | 8 | 207 | 0.0 | 0.0 | 0.00 | 0.36 | 0.36 | 88 | 1011.3 |
| 20260504170504 | 8 | 207 | 0.0 | 0.0 | 0.00 | 0.36 | 0.36 | 88 | 1011.3 |
| 20260504160432 | 8 | 38 | 0.0 | 0.0 | 0.00 | 0.36 | 0.36 | 87 | 1011.0 |
| 20260504160222 | 8 | 38 | 0.0 | 0.0 | 0.00 | 0.36 | 0.36 | 87 | 1011.0 |
| 20260504151049 | 7 | 38 | 0.0 | 0.0 | 0.00 | 0.33 | 0.33 | 86 | 1011.0 |
| 20260504150848 | 7 | 38 | 0.0 | 0.0 | 0.00 | 0.33 | 0.33 | 86 | 1011.0 |
| 20260504150645 | 7 | 38 | 0.0 | 0.0 | 0.00 | 0.33 | 0.33 | 86 | 1011.0 |
| 20260504150434 | 7 | 38 | 0.0 | 0.0 | 0.00 | 0.33 | 0.33 | 86 | 1011.0 |
| 20260504141307 | 8 | 38 | 0.0 | 0.0 | 0.00 | 0.33 | 0.33 | 86 | 1011.1 |
| 20260504141055 | 8 | 38 | 0.0 | 0.0 | 0.00 | 0.33 | 0.33 | 86 | 1011.0 |
| 20260504140843 | 8 | 38 | 0.0 | 0.0 | 0.00 | 0.33 | 0.33 | 86 | 1011.0 |
| 20260504140638 | 8 | 38 | 0.0 | 0.0 | 0.00 | 0.30 | 0.30 | 86 | 1011.0 |
| 20260504140425 | 8 | 38 | 0.0 | 0.0 | 0.00 | 0.30 | 0.30 | 86 | 1011.0 |
| 20260504140218 | 8 | 38 | 0.0 | 0.0 | 0.00 | 0.30 | 0.30 | 86 | 1011.0 |
| 20260504130610 | 8 | 38 | 0.0 | 0.0 | 0.00 | 0.20 | 0.20 | 85 | 1010.4 |
| 20260504130358 | 8 | 38 | 0.0 | 0.0 | 0.00 | 0.20 | 0.20 | 85 | 1010.4 |
| 20260504130148 | 8 | 38 | 0.0 | 0.0 | 0.00 | 0.20 | 0.20 | 85 | 1010.4 |
| 20260504120131 | 8 | 38 | 0.0 | 0.0 | 0.10 | 0.20 | 0.20 | 83 | 1010.4 |
| 20260504110607 | 9 | 43 | 0.0 | 0.0 | 0.00 | 0.03 | 0.03 | 81 | 1010.5 |
| 20260504110401 | 9 | 43 | 0.0 | 3.2 | 0.00 | 0.03 | 0.03 | 81 | 1010.4 |
| 20260504110151 | 9 | 36 | 0.0 | 1.6 | 0.00 | 0.00 | 0.00 | 81 | 1010.3 |
| 20260504100425 | 10 | 265 | 0.0 | 0.0 | 0.00 | 0.00 | 0.00 | 81 | 1010.2 |
| 20260504100219 | 10 | 265 | 0.0 | 0.0 | 0.00 | 0.00 | 0.00 | 81 | 1010.2 |
| 20260504081844 | 10 | 299 | 0.0 | 0.0 | 0.00 | 0.00 | 0.00 | 83 | 1010.1 |
| 20260504081631 | 10 | 299 | 0.0 | 0.0 | 0.00 | 0.00 | 0.00 | 83 | 1010.2 |
| 20260504081425 | 10 | 299 | 0.0 | 0.0 | 0.00 | 0.00 | 0.00 | 83 | 1010.2 |
| 20260504081218 | 10 | 299 | 0.0 | 0.0 | 0.00 | 0.00 | 0.00 | 83 | 1010.2 |
| 20260504081015 | 10 | 299 | 0.0 | 0.0 | 0.00 | 0.00 | 0.00 | 82 | 1010.2 |
| 20260504080620 | 10 | 299 | 0.0 | 0.0 | 0.00 | 0.00 | 0.00 | 82 | 1010.2 |
| 20260504080414 | 10 | 299 | 0.0 | 0.0 | 0.00 | 0.00 | 0.00 | 82 | 1010.2 |
| 20260504080212 | 10 | 299 | 0.0 | 0.0 | 0.00 | 0.00 | 0.00 | 82 | 1010.1 |
| 20260504070255 | 10 | 299 | 0.0 | 0.0 | 0.00 | 0.00 | 0.00 | 82 | 1010.1 |
| 20260504060131 | 10 | 299 | 0.0 | 0.0 | 0.00 | 0.00 | 0.00 | 79 | 1010.4 |
| 20260504050638 | 11 | 299 | 0.0 | 0.0 | 0.00 | 0.00 | 0.00 | 74 | 1009.6 |
| 20260504050430 | 11 | 299 | 0.0 | 0.0 | 0.00 | 0.00 | 0.00 | 74 | 1009.5 |
| 20260504050220 | 11 | 299 | 0.0 | 0.0 | 0.00 | 0.00 | 0.00 | 74 | 1009.5 |
| 20260504050018 | 11 | 299 | 0.0 | 0.0 | 0.00 | 0.00 | 0.00 | 73 | 1009.4 |
| 20260504045813 | 12 | 299 | 0.0 | 0.0 | 0.00 | 0.00 | 0.00 | 73 | 1009.4 |
| 20260504045234 | 12 | 299 | 0.0 | 0.0 | 0.00 | 0.00 | 0.00 | 73 | 1009.4 |
| 20260504045032 | 12 | 299 | 0.0 | 0.0 | 0.00 | 0.00 | 0.00 | 73 | 1009.4 |
| 20260504044825 | 12 | 299 | 0.0 | 0.0 | 0.00 | 0.00 | 0.00 | 73 | 1009.4 |
| 20260504044623 | 12 | 299 | 0.0 | 0.0 | 0.00 | 0.00 | 0.00 | 73 | 1009.3 |
| 20260504044414 | 12 | 299 | 0.0 | 0.0 | 0.00 | 0.00 | 0.00 | 72 | 1009.3 |
| 20260504044210 | 12 | 299 | 0.0 | 0.0 | 0.00 | 0.00 | 0.00 | 72 | 1009.4 |
| 20260504044001 | 12 | 299 | 0.0 | 0.0 | 0.00 | 0.00 | 0.00 | 72 | 1009.3 |
| 20260504043755 | 12 | 299 | 0.0 | 0.0 | 0.00 | 0.00 | 0.00 | 72 | 1009.3 |
| 20260504043550 | 12 | 299 | 0.0 | 0.0 | 0.00 | 0.00 | 0.00 | 72 | 1009.3 |
| 20260504043339 | 12 | 299 | 0.0 | 0.0 | 0.00 | 0.00 | 0.00 | 72 | 1009.3 |
| 20260504043129 | 12 | 299 | 0.0 | 0.0 | 0.00 | 0.00 | 0.00 | 72 | 1009.2 |
| 20260504042916 | 13 | 299 | 0.0 | 0.0 | 0.00 | 0.00 | 0.00 | 72 | 1009.3 |
| 20260504042713 | 13 | 299 | 0.0 | 0.0 | 0.00 | 0.00 | 0.00 | 72 | 1009.3 |
| 20260504042502 | 13 | 299 | 0.0 | 0.0 | 0.00 | 0.00 | 0.00 | 71 | 1009.3 |
| 20260504042259 | 13 | 299 | 0.0 | 0.0 | 0.00 | 0.00 | 0.00 | 71 | 1009.3 |
| 20260504042057 | 13 | 299 | 0.0 | 0.0 | 0.00 | 0.00 | 0.00 | 71 | 1009.3 |
| 20260504041847 | 13 | 299 | 0.0 | 0.0 | 0.00 | 0.00 | 0.00 | 71 | 1009.3 |
| 20260504041637 | 13 | 299 | 0.0 | 0.0 | 0.00 | 0.00 | 0.00 | 71 | 1009.3 |
| 20260504041431 | 13 | 299 | 0.0 | 0.0 | 0.00 | 0.00 | 0.00 | 71 | 1009.2 |
| 20260504041219 | 13 | 299 | 0.0 | 0.0 | 0.00 | 0.00 | 0.00 | 71 | 1009.3 |
| 20260504041017 | 13 | 299 | 0.0 | 0.0 | 0.00 | 0.00 | 0.00 | 71 | 1009.3 |
| 20260504040813 | 13 | 299 | 0.0 | 0.0 | 0.00 | 0.00 | 0.00 | 70 | 1009.5 |
| 20260504040601 | 13 | 299 | 0.0 | 0.0 | 0.00 | 0.00 | 0.00 | 70 | 1009.5 |
| 20260504040359 | 13 | 299 | 0.0 | 0.0 | 0.00 | 0.00 | 0.00 | 70 | 1009.6 |
| 20260504040148 | 13 | 299 | 0.0 | 0.0 | 0.00 | 0.00 | 0.00 | 70 | 1009.6 |
| 20260504035940 | 13 | 299 | 0.0 | 0.0 | 0.00 | 0.00 | 0.00 | 70 | 1009.5 |
| 20260504035737 | 13 | 299 | 0.0 | 0.0 | 0.00 | 0.00 | 0.00 | 70 | 1009.5 |
| 20260504035340 | 13 | 299 | 0.0 | 0.0 | 0.00 | 0.00 | 0.00 | 70 | 1009.5 |
| 20260504035137 | 13 | 299 | 0.0 | 0.0 | 0.00 | 0.00 | 0.00 | 70 | 1009.5 |
| 20260504034927 | 13 | 299 | 0.0 | 1.6 | 0.00 | 0.00 | 0.00 | 70 | 1009.5 |
| 20260504034355 | 14 | 298 | 0.0 | 0.0 | 0.00 | 0.00 | 0.00 | 69 | 1009.5 |
| 20260504033823 | 14 | 298 | 0.0 | 0.0 | 0.00 | 0.00 | 0.00 | 69 | 1009.4 |
| 20260504033617 | 14 | 299 | 0.0 | 0.0 | 0.00 | 0.00 | 0.00 | 69 | 1009.4 |
| 20260504033413 | 14 | 298 | 0.0 | 0.0 | 0.00 | 0.00 | 0.00 | 69 | 1009.4 |
| 20260504033205 | 14 | 299 | 0.0 | 0.0 | 0.00 | 0.00 | 0.00 | 68 | 1009.3 |
| 20260504032959 | 14 | 299 | 0.0 | 0.0 | 0.00 | 0.00 | 0.00 | 68 | 1009.3 |
| 20260504032421 | 14 | 299 | 0.0 | 3.2 | 0.00 | 0.00 | 0.00 | 68 | 1009.1 |
| 20260504031840 | 15 | 298 | 0.0 | 0.0 | 0.00 | 0.00 | 0.00 | 67 | 1009.0 |
| 20260504031636 | 15 | 298 | 0.0 | 0.0 | 0.00 | 0.00 | 0.00 | 67 | 1008.9 |
| 20260504031423 | 15 | 298 | 0.0 | 0.0 | 0.00 | 0.00 | 0.00 | 67 | 1008.9 |
| 20260504031218 | 15 | 298 | 0.0 | 0.0 | 0.00 | 0.00 | 0.00 | 67 | 1008.9 |
| 20260504031006 | 15 | 298 | 0.0 | 0.0 | 0.00 | 0.00 | 0.00 | 67 | 1008.9 |
| 20260504030802 | 15 | 298 | 0.0 | 3.2 | 0.00 | 0.00 | 0.00 | 67 | 1008.9 |
| 20260504030554 | 15 | 302 | 0.0 | 0.0 | 0.00 | 0.00 | 0.00 | 67 | 1008.9 |
| 20260504030350 | 15 | 302 | 0.0 | 0.0 | 0.00 | 0.00 | 0.00 | 67 | 1008.8 |
| 20260504030148 | 15 | 302 | 0.0 | 0.0 | 0.00 | 0.00 | 0.00 | 66 | 1008.8 |
| 20260504025752 | 15 | 302 | 0.0 | 0.0 | 0.00 | 0.00 | 0.00 | 66 | 1008.8 |
| 20260504025403 | 15 | 302 | 0.0 | 0.0 | 0.00 | 0.00 | 0.00 | 66 | 1008.7 |
| 20260504025158 | 15 | 302 | 0.0 | 0.0 | 0.00 | 0.00 | 0.00 | 66 | 1008.6 |
| 20260504024954 | 15 | 302 | 0.0 | 1.6 | 0.00 | 0.00 | 0.00 | 66 | 1008.6 |
| 20260504024600 | 15 | 302 | 0.0 | 0.0 | 0.00 | 0.00 | 0.00 | 65 | 1008.5 |
| 20260504024357 | 15 | 302 | 0.0 | 3.2 | 0.00 | 0.00 | 0.00 | 65 | 1008.5 |
| 20260504024148 | 15 | 301 | 0.0 | 0.0 | 0.00 | 0.00 | 0.00 | 65 | 1008.5 |
| 20260504023755 | 15 | 301 | 0.0 | 1.6 | 0.00 | 0.00 | 0.00 | 65 | 1008.3 |
| 20260504023547 | 15 | 308 | 0.0 | 1.6 | 0.00 | 0.00 | 0.00 | 65 | 1008.3 |
| 20260504023344 | 15 | 309 | 0.0 | 1.6 | 0.00 | 0.00 | 0.00 | 65 | 1008.3 |
| 20260504023141 | 16 | 309 | 0.0 | 0.0 | 0.00 | 0.00 | 0.00 | 65 | 1008.3 |
| 20260504022938 | 16 | 309 | 0.0 | 4.8 | 0.00 | 0.00 | 0.00 | 65 | 1008.3 |
| 20260504022549 | 16 | 309 | 0.0 | 0.0 | 0.00 | 0.00 | 0.00 | 64 | 1008.2 |
| 20260504022156 | 16 | 309 | 0.0 | 0.0 | 0.00 | 0.00 | 0.00 | 64 | 1008.2 |
| 20260504021944 | 16 | 308 | 0.0 | 6.4 | 0.00 | 0.00 | 0.00 | 64 | 1008.1 |
| 20260504021733 | 16 | 228 | 0.0 | 1.6 | 0.00 | 0.00 | 0.00 | 64 | 1008.1 |
| 20260504021531 | 16 | 224 | 0.0 | 1.6 | 0.00 | 0.00 | 0.00 | 64 | 1008.1 |
| 20260504021320 | 16 | 224 | 0.0 | 0.0 | 0.00 | 0.00 | 0.00 | 64 | 1008.0 |
| 20260504021113 | 16 | 224 | 0.0 | 0.0 | 0.00 | 0.00 | 0.00 | 64 | 1008.0 |
| 20260504020901 | 16 | 224 | 0.0 | 0.0 | 0.00 | 0.00 | 0.00 | 63 | 1008.0 |
| 20260504020649 | 16 | 224 | 0.0 | 0.0 | 0.00 | 0.00 | 0.00 | 63 | 1008.0 |
| 20260504020447 | 16 | 224 | 0.0 | 0.0 | 0.00 | 0.00 | 0.00 | 63 | 1007.9 |
| 20260504020245 | 16 | 224 | 0.0 | 3.2 | 0.00 | 0.00 | 0.00 | 63 | 1007.9 |
| 20260504015855 | 16 | 225 | 0.0 | 3.2 | 0.00 | 0.00 | 0.00 | 63 | 1007.8 |
| 20260504015645 | 16 | 225 | 0.0 | 4.8 | 0.00 | 0.00 | 0.00 | 63 | 1007.8 |
| 20260504015443 | 16 | 225 | 0.0 | 8.0 | 0.00 | 0.00 | 0.00 | 63 | 1007.8 |
| 20260504015237 | 16 | 216 | 0.0 | 8.0 | 0.00 | 0.00 | 0.00 | 63 | 1007.8 |
| 20260504015028 | 16 | 216 | 0.0 | 8.0 | 0.00 | 0.00 | 0.00 | 63 | 1007.8 |
| 20260504014822 | 16 | 229 | 0.0 | 8.0 | 0.00 | 0.00 | 0.00 | 62 | 1007.8 |
| 20260504014621 | 17 | 240 | 0.0 | 8.0 | 0.00 | 0.00 | 0.00 | 62 | 1007.8 |
| 20260504014409 | 17 | 271 | 0.0 | 8.0 | 0.00 | 0.00 | 0.00 | 63 | 1007.8 |
| 20260504014202 | 17 | 271 | 0.0 | 8.0 | 0.00 | 0.00 | 0.00 | 62 | 1007.9 |
| 20260504013956 | 17 | 271 | 0.0 | 8.0 | 0.00 | 0.00 | 0.00 | 63 | 1007.8 |
| 20260504013752 | 17 | 271 | 0.0 | 8.0 | 0.00 | 0.00 | 0.00 | 63 | 1007.8 |
| 20260504013549 | 17 | 219 | 0.0 | 3.2 | 0.00 | 0.00 | 0.00 | 63 | 1007.8 |
| 20260504013335 | 17 | 214 | 0.0 | 0.0 | 0.00 | 0.00 | 0.00 | 63 | 1007.7 |
| 20260504013126 | 17 | 214 | 0.0 | 9.7 | 0.00 | 0.00 | 0.00 | 63 | 1007.8 |
| 20260504012917 | 17 | 208 | 0.0 | 9.7 | 0.00 | 0.00 | 0.00 | 63 | 1007.8 |
| 20260504012712 | 17 | 208 | 0.0 | 9.7 | 0.00 | 0.00 | 0.00 | 63 | 1007.9 |
| 20260504012502 | 17 | 208 | 0.0 | 9.7 | 0.00 | 0.00 | 0.00 | 62 | 1007.9 |
| 20260504012112 | 17 | 269 | 0.0 | 8.0 | 0.00 | 0.00 | 0.00 | 62 | 1007.9 |
| 20260504011902 | 17 | 269 | 1.6 | 8.0 | 0.00 | 0.00 | 0.00 | 62 | 1008.0 |
| 20260504011651 | 17 | 221 | 1.6 | 8.0 | 0.00 | 0.00 | 0.00 | 61 | 1008.0 |
| 20260504011448 | 17 | 205 | 0.0 | 8.0 | 0.00 | 0.00 | 0.00 | 61 | 1008.0 |
| 20260504010913 | 17 | 292 | 1.6 | 3.2 | 0.00 | 0.00 | 0.00 | 63 | 1008.1 |
| 20260504010709 | 17 | 292 | 1.6 | 0.0 | 0.00 | 0.00 | 0.00 | 62 | 1008.1 |
| 20260504005426 | 17 | 219 | 0.0 | 6.4 | 0.00 | 0.00 | 0.00 | 63 | 1008.0 |
| 20260504005224 | 17 | 273 | 0.0 | 6.4 | 0.00 | 0.00 | 0.00 | 63 | 1008.0 |
| 20260504005021 | 17 | 273 | 0.0 | 6.4 | 0.00 | 0.00 | 0.00 | 63 | 1008.0 |
| 20260504004626 | 17 | 287 | 1.6 | 0.0 | 0.00 | 0.00 | 0.00 | 63 | 1008.0 |
| 20260504004418 | 17 | 287 | 1.6 | 9.7 | 0.00 | 0.00 | 0.00 | 63 | 1008.0 |
| 20260504004214 | 17 | 286 | 1.6 | 9.7 | 0.00 | 0.00 | 0.00 | 63 | 1008.0 |
| 20260504004006 | 17 | 286 | 1.6 | 9.7 | 0.00 | 0.00 | 0.00 | 63 | 1008.0 |
| 20260504003801 | 17 | 323 | 0.0 | 8.0 | 0.00 | 0.00 | 0.00 | 64 | 1008.0 |
| 20260504003548 | 17 | 225 | 0.0 | 8.0 | 0.00 | 0.00 | 0.00 | 64 | 1007.9 |
| 20260504003346 | 17 | 225 | 0.0 | 8.0 | 0.00 | 0.00 | 0.00 | 64 | 1007.8 |
| 20260504003143 | 16 | 225 | 1.6 | 8.0 | 0.00 | 0.00 | 0.00 | 64 | 1007.8 |
| 20260504002749 | 16 | 308 | 0.0 | 8.0 | 0.00 | 0.00 | 0.00 | 65 | 1007.8 |
| 20260504002544 | 16 | 340 | 0.0 | 8.0 | 0.00 | 0.00 | 0.00 | 64 | 1007.8 |
| 20260504002331 | 16 | 313 | 0.0 | 6.4 | 0.00 | 0.00 | 0.00 | 64 | 1007.7 |
| 20260504001942 | 17 | 275 | 0.0 | 1.6 | 0.00 | 0.00 | 0.00 | 65 | 1007.7 |
| 20260504001737 | 17 | 275 | 0.0 | 3.2 | 0.00 | 0.00 | 0.00 | 64 | 1007.6 |
| 20260504001530 | 17 | 275 | 0.0 | 3.2 | 0.00 | 0.00 | 0.00 | 64 | 1007.6 |
| 20260504001319 | 17 | 275 | 0.0 | 0.0 | 0.00 | 0.00 | 0.00 | 64 | 1007.6 |
| 20260504000925 | 17 | 275 | 0.0 | 8.0 | 0.00 | 0.00 | 0.00 | 64 | 1007.6 |
| 20260504000354 | 17 | 257 | 0.0 | 0.0 | 0.00 | 0.00 | 0.00 | 63 | 1007.6 |
| 20260503235957 | 17 | 257 | 0.0 | 4.8 | 0.00 | 0.00 | 0.00 | 63 | 1007.6 |
| 20260503235755 | 17 | 256 | 0.0 | 6.4 | 0.00 | 0.00 | 0.00 | 63 | 1007.6 |
| 20260503235544 | 17 | 257 | 0.0 | 6.4 | 0.00 | 0.00 | 0.00 | 63 | 1007.6 |
| 20260503235154 | 17 | 268 | 0.0 | 6.4 | 0.00 | 0.00 | 0.00 | 63 | 1007.5 |
| 20260503234949 | 17 | 268 | 0.0 | 6.4 | 0.00 | 0.00 | 0.00 | 63 | 1007.5 |